Year,Month,Day,Hour,Minute,Value (Times are PST for temperature in C)
2011,02,08,00,00,0.30
2011,02,08,00,01,0.30
2011,02,08,00,02,0.30
2011,02,08,00,03,0.30
2011,02,08,00,04,0.20
2011,02,08,00,05,0.20
2011,02,08,00,06,0.20
2011,02,08,00,07,0.20
2011,02,08,00,08,0.20
2011,02,08,00,09,0.10
2011,02,08,00,10,0.10
2011,02,08,00,11,0.10
2011,02,08,00,12,0.10
2011,02,08,00,13,0.10
2011,02,08,00,14,0.10
2011,02,08,00,15,0.10
2011,02,08,00,16,0.10
2011,02,08,00,17,0.10
2011,02,08,00,18,0.10
2011,02,08,00,19,0.10
2011,02,08,00,20,0.10
2011,02,08,00,21,0.10
2011,02,08,00,22,0.10
2011,02,08,00,23,0.10
2011,02,08,00,24,0.10
2011,02,08,00,25,0.00
2011,02,08,00,26,-0.10
2011,02,08,00,27,-0.10
2011,02,08,00,28,-0.10
2011,02,08,00,29,-0.10
2011,02,08,00,30,-0.10
2011,02,08,00,31,-0.10
2011,02,08,00,32,-0.10
2011,02,08,00,33,-0.10
2011,02,08,00,34,-0.10
2011,02,08,00,35,-0.10
2011,02,08,00,36,-0.10
2011,02,08,00,37,-0.10
2011,02,08,00,38,-0.10
2011,02,08,00,39,-0.10
2011,02,08,00,40,-0.10
2011,02,08,00,41,-0.10
2011,02,08,00,42,0.00
2011,02,08,00,43,0.10
2011,02,08,00,44,0.10
2011,02,08,00,45,0.10
2011,02,08,00,46,0.10
2011,02,08,00,47,0.10
2011,02,08,00,48,0.10
2011,02,08,00,49,0.10
2011,02,08,00,50,0.10
2011,02,08,00,51,0.10
2011,02,08,00,52,0.10
2011,02,08,00,53,0.10
2011,02,08,00,54,0.10
2011,02,08,00,55,0.10
2011,02,08,00,56,0.10
2011,02,08,00,57,0.10
2011,02,08,00,58,0.10
2011,02,08,00,59,0.10
2011,02,08,01,00,0.10
2011,02,08,01,01,0.10
2011,02,08,01,02,0.10
2011,02,08,01,03,0.10
2011,02,08,01,04,0.10
2011,02,08,01,05,0.10
2011,02,08,01,06,0.10
2011,02,08,01,07,0.10
2011,02,08,01,08,0.10
2011,02,08,01,09,0.10
2011,02,08,01,10,0.10
2011,02,08,01,11,0.10
2011,02,08,01,12,0.10
2011,02,08,01,13,0.10
2011,02,08,01,14,0.10
2011,02,08,01,15,0.10
2011,02,08,01,16,0.10
2011,02,08,01,17,0.20
2011,02,08,01,18,0.20
2011,02,08,01,19,0.20
2011,02,08,01,20,0.20
2011,02,08,01,21,0.20
2011,02,08,01,22,0.20
2011,02,08,01,23,0.10
2011,02,08,01,24,0.10
2011,02,08,01,25,0.10
2011,02,08,01,26,0.10
2011,02,08,01,27,0.10
2011,02,08,01,28,0.10
2011,02,08,01,29,0.10
2011,02,08,01,30,0.20
2011,02,08,01,31,0.20
2011,02,08,01,32,0.20
2011,02,08,01,33,0.30
2011,02,08,01,34,0.30
2011,02,08,01,35,0.40
2011,02,08,01,36,0.40
2011,02,08,01,37,0.40
2011,02,08,01,38,0.40
2011,02,08,01,39,0.40
2011,02,08,01,40,0.40
2011,02,08,01,41,0.40
2011,02,08,01,42,0.50
2011,02,08,01,43,0.50
2011,02,08,01,44,0.50
2011,02,08,01,45,0.50
2011,02,08,01,46,0.50
2011,02,08,01,47,0.50
2011,02,08,01,48,0.50
2011,02,08,01,49,0.50
2011,02,08,01,50,0.50
2011,02,08,01,51,0.50
2011,02,08,01,52,0.50
2011,02,08,01,53,0.60
2011,02,08,01,54,0.60
2011,02,08,01,55,0.50
2011,02,08,01,56,0.50
2011,02,08,01,57,0.60
2011,02,08,01,58,0.60
2011,02,08,01,59,0.60
2011,02,08,02,00,0.60
2011,02,08,02,01,0.60
2011,02,08,02,02,0.60
2011,02,08,02,03,0.60
2011,02,08,02,04,0.60
2011,02,08,02,05,0.60
2011,02,08,02,06,0.60
2011,02,08,02,07,0.60
2011,02,08,02,08,0.60
2011,02,08,02,09,0.60
2011,02,08,02,10,0.70
2011,02,08,02,11,0.70
2011,02,08,02,12,0.70
2011,02,08,02,13,0.70
2011,02,08,02,14,0.70
2011,02,08,02,15,0.70
2011,02,08,02,16,0.70
2011,02,08,02,17,0.70
2011,02,08,02,18,0.70
2011,02,08,02,19,0.70
2011,02,08,02,20,0.70
2011,02,08,02,21,0.70
2011,02,08,02,22,0.70
2011,02,08,02,23,0.70
2011,02,08,02,24,0.70
2011,02,08,02,25,0.80
2011,02,08,02,26,0.80
2011,02,08,02,27,0.80
2011,02,08,02,28,0.80
2011,02,08,02,29,0.80
2011,02,08,02,30,0.80
2011,02,08,02,31,0.80
2011,02,08,02,32,0.80
2011,02,08,02,33,0.90
2011,02,08,02,34,0.90
2011,02,08,02,35,0.90
2011,02,08,02,36,1.00
2011,02,08,02,37,1.00
2011,02,08,02,38,1.00
2011,02,08,02,39,1.00
2011,02,08,02,40,1.10
2011,02,08,02,41,1.10
2011,02,08,02,42,1.10
2011,02,08,02,43,1.20
2011,02,08,02,44,1.20
2011,02,08,02,45,1.20
2011,02,08,02,46,1.20
2011,02,08,02,47,1.30
2011,02,08,02,48,1.30
2011,02,08,02,49,1.30
2011,02,08,02,50,1.30
2011,02,08,02,51,1.30
2011,02,08,02,52,1.30
2011,02,08,02,53,1.30
2011,02,08,02,54,1.30
2011,02,08,02,55,1.30
2011,02,08,02,56,1.30
2011,02,08,02,57,1.30
2011,02,08,02,58,1.30
2011,02,08,02,59,1.30
2011,02,08,03,00,1.30
2011,02,08,03,01,1.30
2011,02,08,03,02,1.40
2011,02,08,03,03,1.40
2011,02,08,03,04,1.40
2011,02,08,03,05,1.40
2011,02,08,03,06,1.40
2011,02,08,03,07,1.40
2011,02,08,03,08,1.40
2011,02,08,03,09,1.50
2011,02,08,03,10,1.50
2011,02,08,03,11,1.50
2011,02,08,03,12,1.50
2011,02,08,03,13,1.50
2011,02,08,03,14,1.50
2011,02,08,03,15,1.60
2011,02,08,03,16,1.60
2011,02,08,03,17,1.60
2011,02,08,03,18,1.60
2011,02,08,03,19,1.60
2011,02,08,03,20,1.60
2011,02,08,03,21,1.60
2011,02,08,03,22,1.60
2011,02,08,03,23,1.70
2011,02,08,03,24,1.70
2011,02,08,03,25,1.70
2011,02,08,03,26,1.70
2011,02,08,03,27,1.70
2011,02,08,03,28,1.80
2011,02,08,03,29,1.80
2011,02,08,03,30,1.80
2011,02,08,03,31,1.80
2011,02,08,03,32,1.80
2011,02,08,03,33,1.80
2011,02,08,03,34,1.80
2011,02,08,03,35,1.80
2011,02,08,03,36,1.80
2011,02,08,03,37,1.80
2011,02,08,03,38,1.80
2011,02,08,03,39,1.90
2011,02,08,03,40,1.90
2011,02,08,03,41,1.90
2011,02,08,03,42,1.90
2011,02,08,03,43,1.90
2011,02,08,03,44,1.90
2011,02,08,03,45,1.90
2011,02,08,03,46,1.90
2011,02,08,03,47,2.00
2011,02,08,03,48,2.00
2011,02,08,03,49,2.00
2011,02,08,03,50,2.00
2011,02,08,03,51,2.00
2011,02,08,03,52,2.00
2011,02,08,03,53,2.00
2011,02,08,03,54,2.00
2011,02,08,03,55,2.00
2011,02,08,03,56,2.00
2011,02,08,03,57,2.00
2011,02,08,03,58,2.00
2011,02,08,03,59,2.00
2011,02,08,04,00,1.90
2011,02,08,04,01,1.90
2011,02,08,04,02,1.90
2011,02,08,04,03,1.90
2011,02,08,04,04,2.00
2011,02,08,04,05,2.00
2011,02,08,04,06,2.00
2011,02,08,04,07,2.00
2011,02,08,04,08,2.00
2011,02,08,04,09,2.00
2011,02,08,04,10,2.10
2011,02,08,04,11,2.10
2011,02,08,04,12,2.20
2011,02,08,04,13,2.20
2011,02,08,04,14,2.30
2011,02,08,04,15,2.40
2011,02,08,04,16,2.50
2011,02,08,04,17,2.50
2011,02,08,04,18,2.60
2011,02,08,04,19,2.70
2011,02,08,04,20,2.70
2011,02,08,04,21,2.90
2011,02,08,04,22,2.90
2011,02,08,04,23,2.90
2011,02,08,04,24,3.10
2011,02,08,04,25,3.10
2011,02,08,04,26,3.10
2011,02,08,04,27,3.10
2011,02,08,04,28,3.10
2011,02,08,04,29,3.10
2011,02,08,04,30,3.10
2011,02,08,04,31,3.10
2011,02,08,04,32,3.10
2011,02,08,04,33,3.10
2011,02,08,04,34,3.10
2011,02,08,04,35,3.10
2011,02,08,04,36,3.10
2011,02,08,04,37,3.10
2011,02,08,04,38,3.20
2011,02,08,04,39,3.20
2011,02,08,04,40,3.20
2011,02,08,04,41,3.30
2011,02,08,04,42,3.30
2011,02,08,04,43,3.30
2011,02,08,04,44,3.30
2011,02,08,04,45,3.40
2011,02,08,04,46,3.40
2011,02,08,04,47,3.40
2011,02,08,04,48,3.40
2011,02,08,04,49,3.40
2011,02,08,04,50,3.40
2011,02,08,04,51,3.40
2011,02,08,04,52,3.40
2011,02,08,04,53,3.50
2011,02,08,04,54,3.50
2011,02,08,04,55,3.50
2011,02,08,04,56,3.50
2011,02,08,04,57,3.50
2011,02,08,04,58,3.50
2011,02,08,04,59,3.60
2011,02,08,05,00,3.60
2011,02,08,05,01,3.60
2011,02,08,05,02,3.60
2011,02,08,05,03,3.60
2011,02,08,05,04,3.60
2011,02,08,05,05,3.60
2011,02,08,05,06,3.60
2011,02,08,05,07,3.60
2011,02,08,05,08,3.60
2011,02,08,05,09,3.60
2011,02,08,05,10,3.70
2011,02,08,05,11,3.70
2011,02,08,05,12,3.70
2011,02,08,05,13,3.70
2011,02,08,05,14,3.70
2011,02,08,05,15,3.70
2011,02,08,05,16,3.70
2011,02,08,05,17,3.70
2011,02,08,05,18,3.70
2011,02,08,05,19,3.70
2011,02,08,05,20,3.70
2011,02,08,05,21,3.70
2011,02,08,05,22,3.70
2011,02,08,05,23,3.70
2011,02,08,05,24,3.70
2011,02,08,05,25,3.70
2011,02,08,05,26,3.80
2011,02,08,05,27,3.80
2011,02,08,05,28,3.80
2011,02,08,05,29,3.80
2011,02,08,05,30,3.80
2011,02,08,05,31,3.80
2011,02,08,05,32,3.80
2011,02,08,05,33,3.80
2011,02,08,05,34,3.80
2011,02,08,05,35,3.80
2011,02,08,05,36,3.80
2011,02,08,05,37,3.80
2011,02,08,05,38,3.80
2011,02,08,05,39,3.80
2011,02,08,05,40,3.80
2011,02,08,05,41,3.80
2011,02,08,05,42,3.90
2011,02,08,05,43,3.90
2011,02,08,05,44,3.90
2011,02,08,05,45,3.90
2011,02,08,05,46,3.90
2011,02,08,05,47,3.90
2011,02,08,05,48,3.90
2011,02,08,05,49,3.90
2011,02,08,05,50,3.90
2011,02,08,05,51,3.90
2011,02,08,05,52,3.90
2011,02,08,05,53,4.00
2011,02,08,05,54,4.00
2011,02,08,05,55,4.00
2011,02,08,05,56,4.00
2011,02,08,05,57,4.00
2011,02,08,05,58,4.00
2011,02,08,05,59,4.00
2011,02,08,06,00,4.00
2011,02,08,06,01,4.00
2011,02,08,06,02,4.00
2011,02,08,06,03,4.10
2011,02,08,06,04,4.10
2011,02,08,06,05,4.10
2011,02,08,06,06,4.10
2011,02,08,06,07,4.10
2011,02,08,06,08,4.10
2011,02,08,06,09,4.10
2011,02,08,06,10,4.10
2011,02,08,06,11,4.10
2011,02,08,06,12,4.10
2011,02,08,06,13,4.10
2011,02,08,06,14,4.10
2011,02,08,06,15,4.10
2011,02,08,06,16,4.10
2011,02,08,06,17,4.20
2011,02,08,06,18,4.20
2011,02,08,06,19,4.20
2011,02,08,06,20,4.20
2011,02,08,06,21,4.20
2011,02,08,06,22,4.20
2011,02,08,06,23,4.20
2011,02,08,06,24,4.20
2011,02,08,06,25,4.20
2011,02,08,06,26,4.20
2011,02,08,06,27,4.20
2011,02,08,06,28,4.20
2011,02,08,06,29,4.20
2011,02,08,06,30,4.20
2011,02,08,06,31,4.20
2011,02,08,06,32,4.20
2011,02,08,06,33,4.20
2011,02,08,06,34,4.20
2011,02,08,06,35,4.20
2011,02,08,06,36,4.20
2011,02,08,06,37,4.20
2011,02,08,06,38,4.20
2011,02,08,06,39,4.20
2011,02,08,06,40,4.20
2011,02,08,06,41,4.20
2011,02,08,06,42,4.20
2011,02,08,06,43,4.20
2011,02,08,06,44,4.20
2011,02,08,06,45,4.20
2011,02,08,06,46,4.10
2011,02,08,06,47,4.10
2011,02,08,06,48,4.10
2011,02,08,06,49,4.10
2011,02,08,06,50,4.00
2011,02,08,06,51,4.00
2011,02,08,06,52,4.00
2011,02,08,06,53,4.10
2011,02,08,06,54,4.10
2011,02,08,06,55,4.10
2011,02,08,06,56,4.10
2011,02,08,06,57,4.10
2011,02,08,06,58,4.10
2011,02,08,06,59,4.10
2011,02,08,07,00,4.10
2011,02,08,07,01,4.10
2011,02,08,07,02,4.10
2011,02,08,07,03,4.10
2011,02,08,07,04,4.00
2011,02,08,07,05,4.00
2011,02,08,07,06,4.00
2011,02,08,07,07,4.00
2011,02,08,07,08,4.00
2011,02,08,07,09,4.00
2011,02,08,07,10,4.00
2011,02,08,07,11,4.00
2011,02,08,07,12,4.00
2011,02,08,07,13,4.00
2011,02,08,07,14,4.00
2011,02,08,07,15,4.00
2011,02,08,07,16,4.00
2011,02,08,07,17,4.00
2011,02,08,07,18,4.00
2011,02,08,07,19,4.00
2011,02,08,07,20,4.00
2011,02,08,07,21,4.00
2011,02,08,07,22,4.00
2011,02,08,07,23,4.00
2011,02,08,07,24,4.00
2011,02,08,07,25,4.00
2011,02,08,07,26,4.00
2011,02,08,07,27,4.00
2011,02,08,07,28,4.00
2011,02,08,07,29,4.00
2011,02,08,07,30,4.00
2011,02,08,07,31,4.00
2011,02,08,07,32,4.00
2011,02,08,07,33,4.00
2011,02,08,07,34,4.00
2011,02,08,07,35,4.00
2011,02,08,07,36,4.10
2011,02,08,07,37,4.00
2011,02,08,07,38,4.10
2011,02,08,07,39,4.10
2011,02,08,07,40,4.10
2011,02,08,07,41,4.00
2011,02,08,07,42,4.00
2011,02,08,07,43,4.00
2011,02,08,07,44,4.00
2011,02,08,07,45,4.00
2011,02,08,07,46,4.10
2011,02,08,07,47,4.10
2011,02,08,07,48,4.10
2011,02,08,07,49,4.10
2011,02,08,07,50,4.10
2011,02,08,07,51,4.10
2011,02,08,07,52,4.10
2011,02,08,07,53,4.10
2011,02,08,07,54,4.10
2011,02,08,07,55,4.20
2011,02,08,07,56,4.20
2011,02,08,07,57,4.20
2011,02,08,07,58,4.20
2011,02,08,07,59,4.20
2011,02,08,08,00,4.20
2011,02,08,08,01,4.20
2011,02,08,08,02,4.20
2011,02,08,08,03,4.20
2011,02,08,08,04,4.20
2011,02,08,08,05,4.20
2011,02,08,08,06,4.20
2011,02,08,08,07,4.20
2011,02,08,08,08,4.20
2011,02,08,08,09,4.20
2011,02,08,08,10,4.20
2011,02,08,08,11,4.20
2011,02,08,08,12,4.20
2011,02,08,08,13,4.20
2011,02,08,08,14,4.20
2011,02,08,08,15,4.20
2011,02,08,08,16,4.20
2011,02,08,08,17,4.20
2011,02,08,08,18,4.20
2011,02,08,08,19,4.20
2011,02,08,08,20,4.30
2011,02,08,08,21,4.30
2011,02,08,08,22,4.30
2011,02,08,08,23,4.30
2011,02,08,08,24,4.30
2011,02,08,08,25,4.30
2011,02,08,08,26,4.30
2011,02,08,08,27,4.30
2011,02,08,08,28,4.30
2011,02,08,08,29,4.30
2011,02,08,08,30,4.40
2011,02,08,08,31,4.40
2011,02,08,08,32,4.40
2011,02,08,08,33,4.40
2011,02,08,08,34,4.40
2011,02,08,08,35,4.40
2011,02,08,08,36,4.40
2011,02,08,08,37,4.40
2011,02,08,08,38,4.40
2011,02,08,08,39,4.40
2011,02,08,08,40,4.40
2011,02,08,08,41,4.40
2011,02,08,08,42,4.40
2011,02,08,08,43,4.40
2011,02,08,08,44,4.40
2011,02,08,08,45,4.40
2011,02,08,08,46,4.40
2011,02,08,08,47,4.40
2011,02,08,08,48,4.40
2011,02,08,08,49,4.40
2011,02,08,08,50,4.40
2011,02,08,08,51,4.30
2011,02,08,08,52,4.30
2011,02,08,08,53,4.30
2011,02,08,08,54,4.30
2011,02,08,08,55,4.30
2011,02,08,08,56,4.30
2011,02,08,08,57,4.30
2011,02,08,08,58,4.30
2011,02,08,08,59,4.30
2011,02,08,09,00,4.30
2011,02,08,09,01,4.30
2011,02,08,09,02,4.30
2011,02,08,09,03,4.30
2011,02,08,09,04,4.30
2011,02,08,09,05,4.30
2011,02,08,09,06,4.30
2011,02,08,09,07,4.30
2011,02,08,09,08,4.30
2011,02,08,09,09,4.30
2011,02,08,09,10,4.30
2011,02,08,09,11,4.30
2011,02,08,09,12,4.30
2011,02,08,09,13,4.30
2011,02,08,09,14,4.30
2011,02,08,09,15,4.30
2011,02,08,09,16,4.30
2011,02,08,09,17,4.30
2011,02,08,09,18,4.30
2011,02,08,09,19,4.30
2011,02,08,09,20,4.30
2011,02,08,09,21,4.30
2011,02,08,09,22,4.30
2011,02,08,09,23,4.30
2011,02,08,09,24,4.30
2011,02,08,09,25,4.20
2011,02,08,09,26,4.20
2011,02,08,09,27,4.20
2011,02,08,09,28,4.20
2011,02,08,09,29,4.20
2011,02,08,09,30,4.20
2011,02,08,09,31,4.20
2011,02,08,09,32,4.20
2011,02,08,09,33,4.20
2011,02,08,09,34,4.20
2011,02,08,09,35,4.20
2011,02,08,09,36,4.20
2011,02,08,09,37,4.20
2011,02,08,09,38,4.20
2011,02,08,09,39,4.20
2011,02,08,09,40,4.20
2011,02,08,09,41,4.20
2011,02,08,09,42,4.20
2011,02,08,09,43,4.20
2011,02,08,09,44,4.20
2011,02,08,09,45,4.20
2011,02,08,09,46,4.20
2011,02,08,09,47,4.20
2011,02,08,09,48,4.20
2011,02,08,09,49,4.20
2011,02,08,09,50,4.30
2011,02,08,09,51,4.30
2011,02,08,09,52,4.30
2011,02,08,09,53,4.30
2011,02,08,09,54,4.30
2011,02,08,09,55,4.40
2011,02,08,09,56,4.40
2011,02,08,09,57,4.40
2011,02,08,09,58,4.40
2011,02,08,09,59,4.40
2011,02,08,10,00,4.50
2011,02,08,10,01,4.50
2011,02,08,10,02,4.50
2011,02,08,10,03,4.50
2011,02,08,10,04,4.50
2011,02,08,10,05,4.60
2011,02,08,10,06,4.60
2011,02,08,10,07,4.60
2011,02,08,10,08,4.60
2011,02,08,10,09,4.60
2011,02,08,10,10,4.60
2011,02,08,10,11,4.60
2011,02,08,10,12,4.60
2011,02,08,10,13,4.60
2011,02,08,10,14,4.60
2011,02,08,10,15,4.60
2011,02,08,10,16,4.60
2011,02,08,10,17,4.60
2011,02,08,10,18,4.60
2011,02,08,10,19,4.60
2011,02,08,10,20,4.50
2011,02,08,10,21,4.50
2011,02,08,10,22,4.50
2011,02,08,10,23,4.50
2011,02,08,10,24,4.50
2011,02,08,10,25,4.50
2011,02,08,10,26,4.50
2011,02,08,10,27,4.40
2011,02,08,10,28,4.40
2011,02,08,10,29,4.40
2011,02,08,10,30,4.40
2011,02,08,10,31,4.40
2011,02,08,10,32,4.40
2011,02,08,10,33,4.40
2011,02,08,10,34,4.40
2011,02,08,10,35,4.50
2011,02,08,10,36,4.50
2011,02,08,10,37,4.50
2011,02,08,10,38,4.50
2011,02,08,10,39,4.50
2011,02,08,10,40,4.50
2011,02,08,10,41,4.50
2011,02,08,10,42,4.60
2011,02,08,10,43,4.60
2011,02,08,10,44,4.60
2011,02,08,10,45,4.60
2011,02,08,10,46,4.60
2011,02,08,10,47,4.60
2011,02,08,10,48,4.60
2011,02,08,10,49,4.60
2011,02,08,10,50,4.60
2011,02,08,10,51,4.60
2011,02,08,10,52,4.70
2011,02,08,10,53,4.70
2011,02,08,10,54,4.70
2011,02,08,10,55,4.70
2011,02,08,10,56,4.80
2011,02,08,10,57,4.80
2011,02,08,10,58,4.80
2011,02,08,10,59,4.80
2011,02,08,11,00,4.80
2011,02,08,11,01,4.90
2011,02,08,11,02,4.90
2011,02,08,11,03,4.90
2011,02,08,11,04,4.90
2011,02,08,11,05,4.90
2011,02,08,11,06,4.90
2011,02,08,11,07,4.90
2011,02,08,11,08,4.90
2011,02,08,11,09,4.90
2011,02,08,11,10,4.90
2011,02,08,11,11,4.90
2011,02,08,11,12,4.90
2011,02,08,11,13,4.90
2011,02,08,11,14,4.90
2011,02,08,11,15,4.90
2011,02,08,11,16,4.90
2011,02,08,11,17,4.90
2011,02,08,11,18,4.90
2011,02,08,11,19,4.90
2011,02,08,11,20,4.90
2011,02,08,11,21,4.90
2011,02,08,11,22,4.90
2011,02,08,11,23,4.90
2011,02,08,11,24,4.90
2011,02,08,11,25,4.90
2011,02,08,11,26,4.90
2011,02,08,11,27,4.90
2011,02,08,11,28,4.80
2011,02,08,11,29,4.90
2011,02,08,11,30,4.90
2011,02,08,11,31,4.90
2011,02,08,11,32,4.90
2011,02,08,11,33,4.90
2011,02,08,11,34,4.90
2011,02,08,11,35,4.80
2011,02,08,11,36,4.80
2011,02,08,11,37,4.80
2011,02,08,11,38,4.80
2011,02,08,11,39,4.80
2011,02,08,11,40,4.80
2011,02,08,11,41,4.90
2011,02,08,11,42,4.90
2011,02,08,11,43,4.80
2011,02,08,11,44,4.80
2011,02,08,11,45,4.80
2011,02,08,11,46,4.80
2011,02,08,11,47,4.90
2011,02,08,11,48,4.90
2011,02,08,11,49,4.90
2011,02,08,11,50,4.90
2011,02,08,11,51,4.90
2011,02,08,11,52,5.00
2011,02,08,11,53,5.10
2011,02,08,11,54,5.10
2011,02,08,11,55,5.10
2011,02,08,11,56,5.10
2011,02,08,11,57,5.00
2011,02,08,11,58,4.90
2011,02,08,11,59,4.90
2011,02,08,12,00,5.00
2011,02,08,12,01,5.10
2011,02,08,12,02,5.10
2011,02,08,12,03,5.10
2011,02,08,12,04,5.10
2011,02,08,12,05,5.10
2011,02,08,12,06,5.10
2011,02,08,12,07,5.10
2011,02,08,12,08,5.10
2011,02,08,12,09,5.10
2011,02,08,12,10,5.10
2011,02,08,12,11,5.10
2011,02,08,12,12,5.10
2011,02,08,12,13,5.20
2011,02,08,12,14,5.20
2011,02,08,12,15,5.20
2011,02,08,12,16,5.20
2011,02,08,12,17,5.20
2011,02,08,12,18,5.20
2011,02,08,12,19,5.10
2011,02,08,12,20,5.10
2011,02,08,12,21,5.10
2011,02,08,12,22,5.10
2011,02,08,12,23,5.20
2011,02,08,12,24,5.20
2011,02,08,12,25,5.20
2011,02,08,12,26,5.20
2011,02,08,12,27,5.20
2011,02,08,12,28,5.20
2011,02,08,12,29,5.20
2011,02,08,12,30,5.20
2011,02,08,12,31,5.20
2011,02,08,12,32,5.20
2011,02,08,12,33,5.30
2011,02,08,12,34,5.30
2011,02,08,12,35,5.30
2011,02,08,12,36,5.30
2011,02,08,12,37,5.30
2011,02,08,12,38,5.40
2011,02,08,12,39,5.40
2011,02,08,12,40,5.40
2011,02,08,12,41,5.30
2011,02,08,12,42,5.30
2011,02,08,12,43,5.30
2011,02,08,12,44,5.30
2011,02,08,12,45,5.40
2011,02,08,12,46,5.30
2011,02,08,12,47,5.30
2011,02,08,12,48,5.40
2011,02,08,12,49,5.40
2011,02,08,12,50,5.40
2011,02,08,12,51,5.40
2011,02,08,12,52,5.40
2011,02,08,12,53,5.40
2011,02,08,12,54,5.40
2011,02,08,12,55,5.40
2011,02,08,12,56,5.40
2011,02,08,12,57,5.40
2011,02,08,12,58,5.40
2011,02,08,12,59,5.40
2011,02,08,13,00,5.50
2011,02,08,13,01,5.50
2011,02,08,13,02,5.60
2011,02,08,13,03,5.60
2011,02,08,13,04,5.60
2011,02,08,13,05,5.60
2011,02,08,13,06,5.60
2011,02,08,13,07,5.60
2011,02,08,13,08,5.60
2011,02,08,13,09,5.70
2011,02,08,13,10,5.70
2011,02,08,13,11,5.70
2011,02,08,13,12,5.70
2011,02,08,13,13,5.70
2011,02,08,13,14,5.70
2011,02,08,13,15,5.70
2011,02,08,13,16,5.70
2011,02,08,13,17,5.70
2011,02,08,13,18,5.70
2011,02,08,13,19,5.70
2011,02,08,13,20,5.70
2011,02,08,13,21,5.70
2011,02,08,13,22,5.70
2011,02,08,13,23,5.70
2011,02,08,13,24,5.80
2011,02,08,13,25,5.80
2011,02,08,13,26,5.80
2011,02,08,13,27,5.80
2011,02,08,13,28,5.90
2011,02,08,13,29,5.90
2011,02,08,13,30,5.90
2011,02,08,13,31,5.90
2011,02,08,13,32,6.00
2011,02,08,13,33,6.00
2011,02,08,13,34,6.00
2011,02,08,13,35,6.10
2011,02,08,13,36,6.10
2011,02,08,13,37,6.10
2011,02,08,13,38,6.00
2011,02,08,13,39,6.00
2011,02,08,13,40,6.00
2011,02,08,13,41,6.00
2011,02,08,13,42,6.00
2011,02,08,13,43,6.10
2011,02,08,13,44,6.20
2011,02,08,13,45,6.20
2011,02,08,13,46,6.20
2011,02,08,13,47,6.30
2011,02,08,13,48,6.20
2011,02,08,13,49,6.20
2011,02,08,13,50,6.10
2011,02,08,13,51,5.90
2011,02,08,13,52,5.90
2011,02,08,13,53,5.80
2011,02,08,13,54,5.90
2011,02,08,13,55,5.90
2011,02,08,13,56,6.00
2011,02,08,13,57,6.00
2011,02,08,13,58,5.90
2011,02,08,13,59,5.90
2011,02,08,14,00,5.80
2011,02,08,14,01,5.90
2011,02,08,14,02,6.00
2011,02,08,14,03,6.00
2011,02,08,14,04,6.10
2011,02,08,14,05,6.20
2011,02,08,14,06,6.20
2011,02,08,14,07,6.20
2011,02,08,14,08,6.20
2011,02,08,14,09,6.20
2011,02,08,14,10,6.20
2011,02,08,14,11,6.20
2011,02,08,14,12,6.20
2011,02,08,14,13,6.20
2011,02,08,14,14,6.20
2011,02,08,14,15,6.30
2011,02,08,14,16,6.40
2011,02,08,14,17,6.40
2011,02,08,14,18,6.40
2011,02,08,14,19,6.40
2011,02,08,14,20,6.40
2011,02,08,14,21,6.40
2011,02,08,14,22,6.40
2011,02,08,14,23,6.40
2011,02,08,14,24,6.40
2011,02,08,14,25,6.40
2011,02,08,14,26,6.40
2011,02,08,14,27,6.40
2011,02,08,14,28,6.50
2011,02,08,14,29,6.60
2011,02,08,14,30,6.60
2011,02,08,14,31,6.60
2011,02,08,14,32,6.60
2011,02,08,14,33,6.40
2011,02,08,14,34,6.40
2011,02,08,14,35,6.40
2011,02,08,14,36,6.40
2011,02,08,14,37,6.40
2011,02,08,14,38,6.40
2011,02,08,14,39,6.30
2011,02,08,14,40,6.20
2011,02,08,14,41,6.20
2011,02,08,14,42,6.20
2011,02,08,14,43,6.20
2011,02,08,14,44,6.20
2011,02,08,14,45,6.30
2011,02,08,14,46,6.30
2011,02,08,14,47,6.30
2011,02,08,14,48,6.30
2011,02,08,14,49,6.20
2011,02,08,14,50,6.20
2011,02,08,14,51,6.20
2011,02,08,14,52,6.20
2011,02,08,14,53,6.10
2011,02,08,14,54,6.10
2011,02,08,14,55,6.10
2011,02,08,14,56,6.10
2011,02,08,14,57,6.10
2011,02,08,14,58,6.10
2011,02,08,14,59,6.20
2011,02,08,15,00,6.20
2011,02,08,15,01,6.20
2011,02,08,15,02,6.20
2011,02,08,15,03,6.30
2011,02,08,15,04,6.30
2011,02,08,15,05,6.40
2011,02,08,15,06,6.40
2011,02,08,15,07,6.40
2011,02,08,15,08,6.40
2011,02,08,15,09,6.40
2011,02,08,15,10,6.40
2011,02,08,15,11,6.40
2011,02,08,15,12,6.40
2011,02,08,15,13,6.40
2011,02,08,15,14,6.40
2011,02,08,15,15,6.40
2011,02,08,15,16,6.40
2011,02,08,15,17,6.40
2011,02,08,15,18,6.40
2011,02,08,15,19,6.40
2011,02,08,15,20,6.40
2011,02,08,15,21,6.40
2011,02,08,15,22,6.40
2011,02,08,15,23,6.40
2011,02,08,15,24,6.40
2011,02,08,15,25,6.40
2011,02,08,15,26,6.30
2011,02,08,15,27,6.30
2011,02,08,15,28,6.30
2011,02,08,15,29,6.30
2011,02,08,15,30,6.30
2011,02,08,15,31,6.30
2011,02,08,15,32,6.20
2011,02,08,15,33,6.20
2011,02,08,15,34,6.20
2011,02,08,15,35,6.10
2011,02,08,15,36,6.10
2011,02,08,15,37,6.10
2011,02,08,15,38,6.10
2011,02,08,15,39,6.10
2011,02,08,15,40,6.00
2011,02,08,15,41,6.00
2011,02,08,15,42,6.00
2011,02,08,15,43,6.00
2011,02,08,15,44,5.90
2011,02,08,15,45,5.90
2011,02,08,15,46,5.90
2011,02,08,15,47,5.90
2011,02,08,15,48,5.90
2011,02,08,15,49,5.90
2011,02,08,15,50,5.90
2011,02,08,15,51,5.90
2011,02,08,15,52,5.90
2011,02,08,15,53,5.90
2011,02,08,15,54,5.90
2011,02,08,15,55,5.90
2011,02,08,15,56,5.90
2011,02,08,15,57,5.90
2011,02,08,15,58,5.90
2011,02,08,15,59,5.90
2011,02,08,16,00,5.90
2011,02,08,16,01,5.90
2011,02,08,16,02,5.90
2011,02,08,16,03,5.90
2011,02,08,16,04,6.00
2011,02,08,16,05,6.00
2011,02,08,16,06,6.00
2011,02,08,16,07,6.00
2011,02,08,16,08,6.00
2011,02,08,16,09,5.90
2011,02,08,16,10,5.90
2011,02,08,16,11,5.90
2011,02,08,16,12,5.90
2011,02,08,16,13,5.90
2011,02,08,16,14,5.90
2011,02,08,16,15,5.90
2011,02,08,16,16,5.90
2011,02,08,16,17,5.90
2011,02,08,16,18,5.90
2011,02,08,16,19,5.90
2011,02,08,16,20,5.90
2011,02,08,16,21,5.90
2011,02,08,16,22,5.90
2011,02,08,16,23,5.90
2011,02,08,16,24,5.80
2011,02,08,16,25,5.80
2011,02,08,16,26,5.80
2011,02,08,16,27,5.80
2011,02,08,16,28,5.80
2011,02,08,16,29,5.80
2011,02,08,16,30,5.80
2011,02,08,16,31,5.80
2011,02,08,16,32,5.80
2011,02,08,16,33,5.80
2011,02,08,16,34,5.80
2011,02,08,16,35,5.80
2011,02,08,16,36,5.70
2011,02,08,16,37,5.70
2011,02,08,16,38,5.70
2011,02,08,16,39,5.70
2011,02,08,16,40,5.70
2011,02,08,16,41,5.70
2011,02,08,16,42,5.70
2011,02,08,16,43,5.70
2011,02,08,16,44,5.70
2011,02,08,16,45,5.70
2011,02,08,16,46,5.70
2011,02,08,16,47,5.70
2011,02,08,16,48,5.60
2011,02,08,16,49,5.60
2011,02,08,16,50,5.60
2011,02,08,16,51,5.50
2011,02,08,16,52,5.40
2011,02,08,16,53,5.40
2011,02,08,16,54,5.30
2011,02,08,16,55,5.30
2011,02,08,16,56,5.30
2011,02,08,16,57,5.30
2011,02,08,16,58,5.20
2011,02,08,16,59,5.10
2011,02,08,17,00,5.10
2011,02,08,17,01,5.10
2011,02,08,17,02,5.10
2011,02,08,17,03,5.10
2011,02,08,17,04,5.00
2011,02,08,17,05,4.90
2011,02,08,17,06,4.90
2011,02,08,17,07,4.90
2011,02,08,17,08,4.80
2011,02,08,17,09,4.80
2011,02,08,17,10,4.70
2011,02,08,17,11,4.70
2011,02,08,17,12,4.60
2011,02,08,17,13,4.60
2011,02,08,17,14,4.60
2011,02,08,17,15,4.60
2011,02,08,17,16,4.50
2011,02,08,17,17,4.50
2011,02,08,17,18,4.50
2011,02,08,17,19,4.50
2011,02,08,17,20,4.50
2011,02,08,17,21,4.40
2011,02,08,17,22,4.40
2011,02,08,17,23,4.30
2011,02,08,17,24,4.30
2011,02,08,17,25,4.20
2011,02,08,17,26,4.20
2011,02,08,17,27,4.10
2011,02,08,17,28,4.00
2011,02,08,17,29,4.00
2011,02,08,17,30,4.00
2011,02,08,17,31,3.90
2011,02,08,17,32,3.80
2011,02,08,17,33,3.80
2011,02,08,17,34,3.80
2011,02,08,17,35,3.80
2011,02,08,17,36,3.70
2011,02,08,17,37,3.70
2011,02,08,17,38,3.60
2011,02,08,17,39,3.60
2011,02,08,17,40,3.60
2011,02,08,17,41,3.50
2011,02,08,17,42,3.50
2011,02,08,17,43,3.50
2011,02,08,17,44,3.40
2011,02,08,17,45,3.40
2011,02,08,17,46,3.40
2011,02,08,17,47,3.40
2011,02,08,17,48,3.30
2011,02,08,17,49,3.30
2011,02,08,17,50,3.30
2011,02,08,17,51,3.30
2011,02,08,17,52,3.30
2011,02,08,17,53,3.20
2011,02,08,17,54,3.20
2011,02,08,17,55,3.20
2011,02,08,17,56,3.10
2011,02,08,17,57,3.10
2011,02,08,17,58,3.10
2011,02,08,17,59,3.10
2011,02,08,18,00,3.10
2011,02,08,18,01,3.00
2011,02,08,18,02,2.90
2011,02,08,18,03,2.90
2011,02,08,18,04,2.90
2011,02,08,18,05,2.90
2011,02,08,18,06,2.90